ZL1TQN Weather Reports


Display with metric or nautical units.
time (UTC)temp
F
wind
direction
speed
MPH
gust
MPH
rain 1hr
in
rain 24hr
in
rain mn
in
humidity
%
barometer
mb
20260905035506 63 255 6.0 13.0 0.00 0.00 0.00 57 1016.5
20260905035006 63 230 8.0 15.0 0.00 0.00 0.00 57 1016.5
20260905034506 63 238 6.0 15.0 0.00 0.00 0.00 58 1016.5
20260905033506 63 249 7.0 15.0 0.00 0.00 0.00 57 1016.5
20260905032506 63 256 10.0 20.0 0.00 0.00 0.00 56 1016.6
20260905032006 63 263 10.0 16.0 0.00 0.00 0.00 56 1016.7
20260905031506 64 245 7.0 17.0 0.00 0.00 0.00 56 1016.7
20260905030006 64 250 13.0 18.0 0.00 0.00 0.00 55 1016.5
20260905025505 64 259 7.0 14.0 0.00 0.00 0.00 56 1016.4
20260905025005 64 254 8.0 17.0 0.00 0.00 0.00 55 1016.3
20260905024505 64 215 6.0 17.0 0.00 0.00 0.00 57 1016.2
20260905024006 64 251 4.0 17.0 0.00 0.00 0.00 59 1016.3
20260905023506 63 258 10.0 17.0 0.00 0.00 0.00 59 1016.4
20260905023006 63 242 10.0 16.0 0.00 0.00 0.00 59 1016.5
20260905022506 63 228 7.0 14.0 0.00 0.00 0.00 60 1016.5
20260905022006 63 220 7.0 16.0 0.00 0.00 0.00 61 1016.5
20260905021506 63 253 6.0 16.0 0.00 0.00 0.00 62 1016.6
20260905021006 63 245 9.0 16.0 0.00 0.00 0.00 58 1016.5
20260905020006 63 248 8.0 21.0 0.00 0.00 0.00 59 1016.7
20260905015006 63 259 3.0 20.0 0.00 0.00 0.00 59 1016.7
20260905014506 63 253 10.0 20.0 0.00 0.00 0.00 57 1016.8
20260905014006 63 262 7.0 18.0 0.00 0.00 0.00 57 1016.9
20260905013505 63 250 8.0 20.0 0.00 0.00 0.00 58 1017.0
20260905013006 63 250 11.0 22.0 0.00 0.00 0.00 58 1016.9
20260905012506 63 252 9.0 22.0 0.00 0.00 0.00 59 1016.9
20260905012006 63 260 9.0 16.0 0.00 0.00 0.00 60 1017.0
20260905011506 63 271 8.0 16.0 0.00 0.00 0.00 62 1017.1
20260905011006 63 255 9.0 16.0 0.00 0.00 0.00 62 1017.2
20260905010006 62 245 5.0 17.0 0.00 0.00 0.00 62 1017.2
20260905005506 62 232 8.0 17.0 0.00 0.00 0.00 61 1017.2
20260905005005 62 188 5.0 17.0 0.00 0.00 0.00 61 1017.2
20260905004506 62 241 6.0 17.0 0.00 0.00 0.00 62 1017.2
20260905004006 62 261 6.0 12.0 0.00 0.00 0.00 61 1017.5
20260905003506 62 181 4.0 15.0 0.00 0.00 0.00 61 1017.5
20260905003006 62 255 5.0 15.0 0.00 0.00 0.00 63 1017.6
20260905002506 62 242 6.0 14.0 0.00 0.00 0.00 64 1017.7
20260905001506 61 257 10.0 18.0 0.00 0.00 0.00 63 1017.7
20260905001006 61 244 7.0 18.0 0.00 0.00 0.00 64 1017.7
20260904235507 61 259 5.0 14.0 0.00 0.00 0.00 65 1017.7
20260904235006 61 244 6.0 13.0 0.00 0.00 0.00 66 1017.7
20260904234505 61 218 3.0 14.0 0.00 0.00 0.00 67 1017.8
20260904234006 61 253 6.0 20.0 0.00 0.00 0.00 65 1017.8
20260904233505 61 248 10.0 20.0 0.00 0.00 0.00 65 1017.8
20260904233005 61 227 3.0 9.0 0.00 0.00 0.00 67 1018.0
20260904232005 60 249 7.0 13.0 0.00 0.00 0.00 66 1018.1
20260904231505 60 257 6.0 13.0 0.00 0.00 0.00 66 1018.2
20260904231005 60 179 5.0 12.0 0.00 0.00 0.00 67 1018.3
20260904230005 60 204 3.0 12.0 0.00 0.00 0.00 68 1018.3
20260904225505 59 226 5.0 12.0 0.00 0.00 0.00 68 1018.4
20260904225005 59 250 2.0 12.0 0.00 0.00 0.00 69 1018.3
20260904224506 59 177 6.0 12.0 0.00 0.00 0.00 67 1018.3
20260904224005 59 195 3.0 12.0 0.00 0.00 0.00 71 1018.3
20260904223506 58 211 5.0 13.0 0.00 0.00 0.00 69 1018.2
20260904223006 58 232 5.0 14.0 0.00 0.00 0.00 69 1018.2
20260904222506 58 270 5.0 14.0 0.00 0.00 0.00 70 1018.2
20260904221505 58 260 2.0 17.0 0.00 0.00 0.00 72 1018.1
20260904221006 58 239 6.0 18.0 0.00 0.00 0.00 71 1018.1
20260904215005 57 260 6.0 16.0 0.00 0.00 0.00 74 1018.2
20260904214506 57 241 6.0 14.0 0.00 0.00 0.00 74 1018.2
20260904213507 57 248 6.0 13.0 0.00 0.00 0.00 73 1018.2
20260904213006 56 180 6.0 13.0 0.00 0.00 0.00 73 1018.2
20260904212506 56 252 5.0 13.0 0.00 0.00 0.00 74 1018.2
20260904212006 56 217 5.0 12.0 0.00 0.00 0.00 75 1018.2
20260904211006 56 220 4.0 12.0 0.00 0.00 0.00 73 1018.3
20260904210006 55 234 4.0 12.0 0.00 0.00 0.00 74 1018.3
20260904205505 55 199 5.0 12.0 0.00 0.00 0.00 73 1018.2
20260904204505 55 230 3.0 8.0 0.00 0.00 0.00 75 1018.2
20260904204005 55 177 2.0 8.0 0.00 0.00 0.00 75 1018.2
20260904203506 54 177 3.0 10.0 0.00 0.00 0.00 74 1018.0
20260904202006 53 222 2.0 6.0 0.00 0.00 0.00 78 1017.8
20260904201506 53 199 1.0 6.0 0.00 0.00 0.00 79 1017.8
20260904201006 52 201 2.0 6.0 0.00 0.00 0.00 79 1017.8
20260904200005 51 208 2.0 9.0 0.00 0.00 0.00 80 1017.7
20260904195006 50 190 3.0 6.0 0.00 0.00 0.00 82 1017.5
20260904194505 50 196 2.0 5.0 0.00 0.00 0.00 83 1017.4
20260904193505 49 170 2.0 5.0 0.00 0.00 0.00 84 1017.2
20260904193005 48 174 3.0 5.0 0.00 0.00 0.00 86 1017.2
20260904192506 47 144 1.0 3.0 0.00 0.00 0.00 87 1017.1
20260904191005 46 133 1.0 3.0 0.00 0.00 0.00 87 1016.8
20260904190006 46 176 2.0 3.0 0.00 0.00 0.00 87 1016.7
20260904185506 46 165 2.0 3.0 0.00 0.00 0.00 80 1016.7
20260904185006 56 175 1.0 2.0 0.00 0.11 0.00 74 1018.0
20260904184005 56 165 0.0 2.0 0.00 0.11 0.00 74 1018.0
20260904183505 56 165 0.0 3.0 0.00 0.11 0.00 74 1018.0
20260904183005 56 165 2.0 3.0 0.00 0.11 0.00 74 1018.0
20260904182505 56 167 0.0 5.0 0.00 0.11 0.00 74 1018.0
20260904182005 56 303 2.0 5.0 0.00 0.11 0.00 74 1018.0
20260904181505 56 269 3.0 3.0 0.00 0.11 0.00 74 1018.0
20260904181005 56 273 2.0 3.0 0.00 0.11 0.00 74 1018.0
20260904180006 56 273 1.0 3.0 0.00 0.11 0.00 74 1018.0
20260904175505 56 278 1.0 3.0 0.00 0.11 0.00 74 1018.0
20260904175005 56 287 1.0 3.0 0.00 0.11 0.00 74 1018.0
20260904174506 56 304 1.0 3.0 0.00 0.11 0.00 74 1018.0
20260904174005 56 253 1.0 3.0 0.00 0.11 0.00 74 1018.0
20260904173505 56 247 2.0 3.0 0.00 0.11 0.00 74 1018.0
20260904173005 56 242 1.0 3.0 0.00 0.11 0.00 74 1018.0
20260904172505 56 254 1.0 3.0 0.00 0.11 0.00 74 1018.0
20260904172005 56 274 2.0 3.0 0.00 0.11 0.00 74 1018.0
20260904171505 56 264 2.0 3.0 0.00 0.11 0.00 74 1018.0
20260904171006 56 231 2.0 5.0 0.00 0.11 0.00 74 1018.0
20260904170005 56 241 2.0 7.0 0.00 0.11 0.00 74 1018.0
20260904165505 56 216 3.0 7.0 0.00 0.11 0.00 74 1018.0
20260904165005 56 233 2.0 6.0 0.00 0.11 0.00 74 1018.0
20260904164005 56 233 3.0 6.0 0.00 0.11 0.00 74 1018.0
20260904163505 56 248 4.0 6.0 0.00 0.11 0.00 74 1018.0
20260904162005 56 261 3.0 7.0 0.00 0.11 0.00 74 1018.0
20260904161505 56 238 3.0 7.0 0.00 0.11 0.00 74 1018.0
20260904161006 56 262 2.0 3.0 0.00 0.11 0.00 74 1018.0
20260904160005 56 249 2.0 5.0 0.00 0.11 0.00 74 1018.0
20260904155506 56 251 2.0 5.0 0.00 0.11 0.00 74 1018.0
20260904155005 56 221 3.0 5.0 0.00 0.11 0.00 74 1018.0
20260904154505 56 250 2.0 3.0 0.00 0.11 0.00 74 1018.0
20260904154005 56 232 1.0 2.0 0.00 0.11 0.00 74 1018.0
20260904153006 56 228 1.0 3.0 0.00 0.11 0.00 74 1018.0
20260904152505 56 206 1.0 3.0 0.00 0.11 0.00 74 1018.0
20260904152005 56 231 2.0 5.0 0.00 0.11 0.00 74 1018.0
20260904151005 56 233 2.0 6.0 0.00 0.11 0.00 74 1018.0
20260904150005 56 242 2.0 5.0 0.00 0.11 0.00 74 1018.0
20260904144505 56 283 1.0 3.0 0.00 0.11 0.00 74 1018.0
20260904143005 56 247 1.0 3.0 0.00 0.11 0.00 74 1018.0
20260904142005 56 261 2.0 3.0 0.00 0.11 0.00 74 1018.0
20260904141505 56 260 2.0 3.0 0.00 0.11 0.00 74 1018.0
20260904140005 56 259 2.0 5.0 0.00 0.11 0.00 74 1018.0
20260904135505 56 282 1.0 5.0 0.00 0.11 0.00 74 1018.0
20260904135005 56 262 3.0 3.0 0.00 0.11 0.00 74 1018.0
20260904134505 56 261 2.0 3.0 0.00 0.11 0.00 74 1018.0
20260904133505 56 206 0.0 0.0 0.00 0.11 0.00 74 1018.0
20260904133005 56 187 0.0 0.0 0.00 0.11 0.00 74 1018.0
20260904132006 56 271 0.0 0.0 0.00 0.11 0.00 74 1018.0
20260904131504 56 249 0.0 0.0 0.00 0.11 0.00 74 1018.0
20260904131005 56 164 0.0 0.0 0.00 0.11 0.00 74 1018.0
20260904125506 56 141 0.0 0.0 0.00 0.11 0.00 74 1018.0
20260904125006 56 91 0.0 0.0 0.00 0.11 0.00 74 1018.0
20260904124505 56 74 0.0 0.0 0.00 0.11 0.00 74 1018.0
20260904124006 56 74 0.0 0.0 0.00 0.11 0.00 74 1018.0
20260904123505 56 71 0.0 0.0 0.00 0.11 0.00 74 1018.0
20260904123006 56 334 0.0 3.0 0.00 0.11 0.00 74 1018.0
20260904122505 56 322 0.0 3.0 0.00 0.11 0.00 74 1018.0
20260904122005 56 323 1.0 5.0 0.00 0.11 0.00 74 1018.0
20260904121505 56 290 1.0 5.0 0.00 0.11 0.00 74 1018.0
20260904120006 56 269 2.0 3.0 0.00 0.11 0.00 74 1018.0
20260904115505 56 306 1.0 3.0 0.00 0.11 0.13 74 1018.0
20260904115005 56 276 1.0 3.0 0.00 0.11 0.13 74 1018.0
20260904114005 56 273 0.0 2.0 0.00 0.11 0.13 74 1018.0
20260904113505 56 273 0.0 3.0 0.00 0.11 0.13 74 1018.0
20260904113005 56 272 1.0 3.0 0.00 0.11 0.13 74 1018.0
20260904112505 56 270 2.0 3.0 0.00 0.11 0.13 74 1018.0
20260904112005 56 302 1.0 2.0 0.00 0.11 0.13 74 1018.0
20260904111504 56 293 1.0 2.0 0.00 0.11 0.13 74 1018.0
20260904111005 56 226 1.0 2.0 0.00 0.11 0.13 74 1018.0
20260904110005 56 200 1.0 2.0 0.00 0.11 0.13 74 1018.0
20260904105505 56 207 0.0 0.0 0.00 0.11 0.13 74 1018.0
20260904104505 56 247 0.0 3.0 0.00 0.11 0.13 74 1018.0
20260904104004 56 258 0.0 3.0 0.00 0.11 0.13 74 1018.0
20260904102505 56 228 2.0 5.0 0.00 0.11 0.13 74 1018.0
20260904102005 56 257 3.0 5.0 0.00 0.11 0.13 74 1018.0
20260904101505 56 247 3.0 5.0 0.00 0.11 0.13 74 1018.0
20260904101005 56 238 2.0 3.0 0.00 0.11 0.13 74 1018.0
20260904100005 56 238 1.0 5.0 0.00 0.11 0.13 74 1018.0
20260904095005 56 304 3.0 10.0 0.00 0.11 0.13 74 1018.0
20260904094005 56 253 6.0 12.0 0.00 0.11 0.13 74 1018.0
20260904093505 56 262 6.0 12.0 0.00 0.11 0.13 74 1018.0
20260904093005 56 276 6.0 12.0 0.00 0.11 0.13 74 1018.0
20260904092505 56 259 6.0 12.0 0.00 0.11 0.13 74 1018.0
20260904092005 56 276 5.0 14.0 0.00 0.11 0.13 74 1018.0
20260904091504 56 279 7.0 14.0 0.00 0.11 0.13 74 1018.0
20260904091005 56 267 6.0 12.0 0.00 0.11 0.13 74 1018.0
20260904090005 56 269 5.0 16.0 0.00 0.11 0.13 74 1018.0
20260904084504 56 264 5.0 13.0 0.00 0.11 0.13 74 1018.0
20260904083504 56 256 6.0 13.0 0.00 0.11 0.13 74 1018.0
20260904083005 56 277 5.0 13.0 0.00 0.11 0.13 74 1018.0
20260904082505 56 267 6.0 13.0 0.00 0.11 0.13 74 1018.0
20260904082006 56 275 6.0 13.0 0.00 0.11 0.13 74 1018.0
20260904081506 56 267 6.0 12.0 0.00 0.11 0.13 74 1018.0
20260904081006 56 276 6.0 12.0 0.00 0.11 0.13 74 1018.0
20260904080006 56 287 6.0 12.0 0.00 0.11 0.13 74 1018.0
20260904075506 56 271 5.0 10.0 0.00 0.11 0.13 74 1018.0
20260904075005 56 265 6.0 9.0 0.00 0.11 0.13 74 1018.0
20260904074506 56 243 4.0 7.0 0.00 0.11 0.13 74 1018.0
20260904074006 56 271 2.0 9.0 0.00 0.11 0.13 74 1018.0
20260904073506 56 277 2.0 14.0 0.00 0.11 0.13 74 1018.0
20260904072506 56 258 4.0 17.0 0.00 0.11 0.13 74 1018.0
20260904071506 56 267 4.0 10.0 0.00 0.11 0.13 74 1018.0
20260904071006 56 266 5.0 10.0 0.00 0.11 0.13 74 1018.0
20260904070006 56 265 6.0 12.0 0.00 0.11 0.13 74 1018.0
20260904065506 56 245 3.0 12.0 0.00 0.11 0.13 74 1018.0
20260904065006 56 268 5.0 12.0 0.00 0.11 0.13 74 1018.0
20260904064506 56 253 3.0 7.0 0.00 0.11 0.13 74 1018.0
20260904064006 56 249 2.0 6.0 0.01 0.11 0.13 74 1018.0
20260904063006 56 250 3.0 6.0 0.04 0.11 0.13 74 1018.0
20260904062506 56 256 2.0 3.0 0.05 0.11 0.13 74 1018.0
20260904062006 56 253 2.0 3.0 0.05 0.11 0.13 74 1018.0
20260904061506 56 227 2.0 3.0 0.05 0.11 0.13 74 1018.0
20260904061006 56 240 2.0 3.0 0.06 0.11 0.13 74 1018.0
20260904060005 56 208 2.0 3.0 0.06 0.11 0.13 74 1018.0
20260904055506 56 275 2.0 3.0 0.06 0.11 0.13 74 1018.0
20260904055006 56 297 1.0 5.0 0.07 0.11 0.13 74 1018.0
20260904054506 56 281 1.0 5.0 0.08 0.11 0.13 74 1018.0
20260904054007 56 234 2.0 5.0 0.07 0.10 0.13 74 1018.0
20260904053505 56 255 2.0 6.0 0.06 0.09 0.11 74 1018.0
20260904053005 56 195 2.0 6.0 0.05 0.07 0.09 74 1018.0
20260904052005 56 215 1.0 10.0 0.05 0.06 0.09 74 1018.0
20260904050006 56 290 2.0 6.0 0.06 0.06 0.08 74 1018.0
20260904045506 56 276 2.0 9.0 0.05 0.05 0.07 74 1018.0
20260904045005 56 254 3.0 9.0 0.04 0.04 0.06 74 1018.0
20260904044505 56 273 5.0 7.0 0.03 0.03 0.06 74 1018.0
20260904044007 56 313 3.0 5.0 0.03 0.03 0.06 74 1018.0
20260904042506 56 292 5.0 12.0 0.02 0.02 0.04 74 1018.0
20260904042005 56 311 5.0 13.0 0.02 0.02 0.04 74 1018.0
20260904041506 56 306 6.0 13.0 0.01 0.01 0.03 74 1018.0
20260904041007 56 296 5.0 12.0 0.01 0.01 0.03 74 1018.0